Starlink 30888

operational
NORAD ID: 58370 Int'l Des: 2023-177 Owner: SPXS Country: US Constellation: starlink
LEOCIRCULAR

Starlink 30888について

説明を読み込み中...

リアルタイム位置

3D地球を読み込み中...

次回通過

高度履歴

Altitude vs Time

uPlot chart will show altitude changes over time

軌道要素

1 58370U 23177V 26036.73789929 .00006253 00000-0 47739-3 0 9993
2 58370 43.0016 165.6859 0001478 273.5953 86.4720 15.02547473123419
Epoch: Feb 5, 2026 • Age: 15 hours

現在のステータス

高度 558.6 km
速度 7.58 km/s
衛星直下点 4.60°N, 68.29°E
打ち上げ日 Nov 18, 2023
運用期間 2.2 years
タイプ internet

技術仕様

分類 Payload
質量 730.00 kg
乾燥質量 700.00 kg
総質量 730.00 kg
長さ 0.30 m
直径 4.10 m
スパン 29.00 m
形状 Box + pan
製造者 SPXS
バスタイプ Starlink V2M
フェーズステータス In Orbit
所有者/国 SPXS/US

大規模コンステレーション

Loading constellations...